Home > Weather > Annapolis County > Past weeks

Flag for Canada Weather for the Past 2 Weeks in Annapolis County, Nova Scotia, Canada

Now
27 °F

Chilly.


Feels Like: 21 °F
Forecast: 26 / 38 °F
Wind: 5 mph from Southwest

Location: Kejimkujik 1

Current Time: Feb 6, 2016 at 8:27:45 PM

Latest Report: Feb 6, 2016 at 7:00 PM


Visibility: N/A

Pressure: 30.26 "Hg

Humidity: 88%

Dew point: 24 °F

Location of Annapolis CountyLocation

Historic Weather in Annapolis County — Graph

°F

Annapolis County Temperature Yesterday

Maximum temperature yesterday: 41 °F (at 12:00 AM)
Minimum temperature yesterday: 28 °F (at 11:00 PM)
Average temperature yesterday: 35 °F

High & Low Weather Summary for the Past Weeks

 TemperatureHumidityPressure
High51 °F (Feb 4, 8:00 AM)100% (Jan 28, 4:00 AM)30.51 "Hg (Jan 28, 4:00 AM)
Low1 °F (Jan 23, 8:00 AM)46% (Feb 2, 3:00 PM)29.12 "Hg (Jan 29, 4:00 PM)
Average30 °F87%29.93 "Hg
* Reported Jan 22 7:00 PM — Feb 6 7:00 PM, Annapolis County, Weather by CustomWeather, © 2016

Note: Actual official high and low records may vary slightly from our data, if they occured in-between our weather recording intervals... More about our weather records

Advertising

Annapolis County Weather History for the Previous 24 Hours

 ConditionsComfort  
Time TempWeatherWind HumidityBarometerVisibility
7:00 PM
Sat, Feb 6
27 °FChilly.5 mph88%30.26 "HgN/A
6:00 PM28 °FChilly.3 mph86%30.25 "HgN/A
5:00 PM29 °FChilly.3 mph80%30.25 "HgN/A
4:00 PM29 °FChilly.6 mph75%30.24 "HgN/A
3:00 PM30 °FChilly.7 mph73%30.23 "HgN/A
2:00 PM30 °FChilly.5 mph75%30.23 "HgN/A
1:00 PM28 °FChilly.7 mph78%30.23 "HgN/A
12:00 PM26 °FChilly.8 mph73%30.25 "HgN/A
11:00 AM24 °FCold.6 mph79%30.24 "HgN/A
10:00 AM22 °FCold.6 mph83%30.22 "HgN/A
9:00 AM20 °FCold.5 mph89%30.21 "HgN/A
8:00 AM19 °FCold.5 mph90%30.17 "HgN/A
7:00 AM19 °FCold.7 mph93%30.13 "HgN/A
6:00 AM19 °FCold.7 mph98%30.10 "HgN/A
5:00 AM20 °FCold.10 mph91%30.05 "HgN/A
4:00 AM23 °FCold.7 mph94%30.00 "HgN/A
3:00 AM24 °FCold.8 mph94%29.94 "HgN/A
2:00 AM24 °FCold.8 mph95%29.87 "HgN/A
1:00 AM25 °FCold.7 mph96%29.81 "HgN/A
12:00 AM26 °FChilly.9 mph96%29.76 "HgN/A
11:00 PM
Fri, Feb 5
28 °FChilly.9 mph97%29.70 "HgN/A
10:00 PM29 °FChilly.9 mph98%29.61 "HgN/A
9:00 PM30 °FChilly.9 mph98%29.56 "HgN/A
8:00 PM32 °FChilly.10 mph99%29.58 "HgN/A
Weather by CustomWeather, © 2016

See weather overviewHow to use our weather pages